This is the latest recevied weather packets stored in our database for station/object SP8PUB-10. If no packets are shown the sender has not sent any weather packets the latest 10 day(s).
| Time | Temp. | Humidity | Pressure | Rain* | Wind** | Luminosity | Snow |
|---|---|---|---|---|---|---|---|
| 1777567820 | 11.67° C | 40% | 1026.6 hPa | - | - | - | - |
| 1777566920 | 11.67° C | 41% | 1026.4 hPa | - | - | - | - |
| 1777566019 | 11.67° C | 41% | 1026.4 hPa | - | - | - | - |
| 1777565119 | 12.22° C | 40% | 1026.5 hPa | - | - | - | - |
| 1777564219 | 12.78° C | 40% | 1026.3 hPa | - | - | - | - |
| 1777563319 | 12.78° C | 38% | 1026.7 hPa | - | - | - | - |
| 1777562419 | 12.78° C | 39% | 1026.6 hPa | - | - | - | - |
| 1777561519 | 12.78° C | 41% | 1026.8 hPa | - | - | - | - |
| 1777560619 | 13.33° C | 41% | 1027.1 hPa | - | - | - | - |
| 1777559719 | 12.78° C | 42% | 1027.3 hPa | - | - | - | - |
| 1777558819 | 12.78° C | 42% | 1027.5 hPa | - | - | - | - |
| 1777557919 | 11.67° C | 44% | 1027.5 hPa | - | - | - | - |
| 1777557019 | 11.67° C | 44% | 1027.6 hPa | - | - | - | - |
| 1777556118 | 11.67° C | 44% | 1027.7 hPa | - | - | - | - |
| 1777555218 | 11.67° C | 44% | 1027.9 hPa | - | - | - | - |
| 1777554318 | 12.22° C | 43% | 1028 hPa | - | - | - | - |
| 1777553418 | 12.78° C | 43% | 1028.1 hPa | - | - | - | - |
| 1777552518 | 12.22° C | 43% | 1028.2 hPa | - | - | - | - |
| 1777551618 | 12.78° C | 42% | 1028.5 hPa | - | - | - | - |
| 1777550718 | 12.22° C | 42% | 1028.6 hPa | - | - | - | - |
| 1777549817 | 12.22° C | 43% | 1028.7 hPa | - | - | - | - |
| 1777548917 | 11.67° C | 42% | 1029.1 hPa | - | - | - | - |
| 1777548017 | 12.22° C | 42% | 1029.3 hPa | - | - | - | - |
| 1777547117 | 11.67° C | 42% | 1029.4 hPa | - | - | - | - |
| 1777546217 | 11.67° C | 42% | 1029.5 hPa | - | - | - | - |
* Rain since midnight (hover to see other rain measurements)
** Current wind speed in m/s (hover to see current wind gust speed)